Montoursville, PA

11:04 PM EDT on July 29, 2016 (GMT -0400)
Williamsport Rgnl

Weather History for KIPT - June, 2012

Change the Weather History Date:

Saturday, June 30, 2012

  Actual Average Record
Temperature  
Mean Temperature 75 °F 72 °F  
Max Temperature 86 °F 83 °F 100 °F (1931)
Min Temperature 64 °F 61 °F 46 °F (1988)
Degree Days  
Heating Degree Days 0 0  
Month to date heating degree days 24 36  
Since 1 June heating degree days 24 37  
Since 1 July heating degree days 4787 5995  
Cooling Degree Days 10 7  
Month to date cooling degree days 152 146  
Year to date cooling degree days 260 189  
Since 1 June cooling degree days 152 146  
Growing Degree Days 25 (Base 50)    
Moisture  
Dew Point 63 °F    
Average Humidity 69    
Maximum Humidity 93    
Minimum Humidity 44    
Precipitation  
Precipitation 0.00 in 0.13 in 1.67 in (1928)
Month to date precipitation 4.22 3.92  
Year to date precipitation 16.06 18.83  
Sea Level Pressure  
Sea Level Pressure 29.78 in    
Wind  
Wind Speed 4 mph (West)    
Max Wind Speed 16 mph    
Max Gust Speed 20 mph    
Visibility 10 miles    
Events      
T = Trace of Precipitation, MM = Missing Value Source: NWS Daily Summary

Daily Weather History Graph

Daily Weather History Graph

Search for Another Location

Airport or City:

Trip Planner

Search our weather history database for the weather conditions in past years. The results will help you decide how hot, cold, wet, or windy it might be!

Date:

Astronomy

Jun. 30, 2012 Rise Set
Actual Time 5:38 AM EDT 8:44 PM EDT
Civil Twilight 5:04 AM EDT 9:18 PM EDT
Nautical Twilight 4:21 AM EDT 10:01 PM EDT
Astronomical Twilight 3:30 AM EDT 10:52 PM EDT
Moon 5:37 PM EDT 2:32 AM EDT
Length of Visible Light 16h 13m
Length of Day
15h 06m
Waxing Gibbous, 87% of the Moon is Illuminated
Jun 30
Waxing Gibbous
Jul 3
Full
Jul 10
Last Quarter
Jul 19
New
Jul 26
First Quarter

Hourly Weather History & Observations

Time (EDT) Temp. Heat Index Dew Point Humidity Pressure Visibility Wind Dir Wind Speed Gust Speed Precip Events Conditions
12:54 AM 72.0 °F - 66.0 °F 81% 29.72 in 10.0 mi Calm Calm - N/A   Clear
1:54 AM 69.1 °F - 66.0 °F 90% 29.73 in 10.0 mi NNW 3.5 mph - N/A   Clear
2:54 AM 68.0 °F - 64.0 °F 87% 29.74 in 10.0 mi Calm Calm - N/A   Clear
3:54 AM 66.9 °F - 64.0 °F 90% 29.76 in 10.0 mi Calm Calm - N/A   Clear
4:54 AM 66.0 °F - 62.1 °F 87% 29.78 in 10.0 mi Calm Calm - N/A   Clear
5:54 AM 64.0 °F - 61.0 °F 90% 29.80 in 8.0 mi Calm Calm - N/A   Clear
7:54 AM 73.0 °F - 64.0 °F 73% 29.81 in 10.0 mi WNW 5.8 mph - N/A   Clear
8:54 AM 77.0 °F - 61.0 °F 58% 29.82 in 10.0 mi West 8.1 mph - N/A   Clear
9:54 AM 79.0 °F - 60.1 °F 52% 29.82 in 10.0 mi WNW 8.1 mph - N/A   Clear
10:54 AM 81.0 °F 81.7 °F 61.0 °F 50% 29.81 in 10.0 mi West 9.2 mph - N/A   Clear
11:54 AM 82.9 °F 83.7 °F 62.1 °F 49% 29.79 in 10.0 mi West 6.9 mph - N/A   Clear
12:54 PM 84.9 °F 85.0 °F 61.0 °F 44% 29.78 in 10.0 mi West 10.4 mph - N/A   Clear
1:54 PM 84.0 °F 84.5 °F 62.1 °F 47% 29.77 in 10.0 mi West 6.9 mph - N/A   Clear
2:54 PM 80.1 °F 81.7 °F 64.0 °F 58% 29.79 in 10.0 mi West 6.9 mph - N/A   Overcast
3:54 PM 82.0 °F 83.4 °F 64.0 °F 54% 29.78 in 10.0 mi WSW 6.9 mph - N/A   Overcast
4:54 PM 86.0 °F 86.8 °F 63.0 °F 46% 29.77 in 10.0 mi West 8.1 mph - N/A   Overcast
5:54 PM 86.0 °F 86.8 °F 63.0 °F 46% 29.76 in 10.0 mi West 8.1 mph - N/A   Clear
6:54 PM 84.0 °F 84.0 °F 60.1 °F 44% 29.77 in 10.0 mi West 5.8 mph - N/A   Clear
7:54 PM 81.0 °F 81.7 °F 61.0 °F 50% 29.78 in 10.0 mi WSW 3.5 mph - N/A   Clear
8:54 PM 75.9 °F - 61.0 °F 60% 29.79 in 10.0 mi WNW 4.6 mph - N/A   Clear
9:54 PM 73.0 °F - 62.1 °F 68% 29.81 in 10.0 mi Calm Calm - N/A   Clear
10:54 PM 70.0 °F - 63.0 °F 78% 29.82 in 10.0 mi Calm Calm - N/A   Clear
11:54 PM 68.0 °F - 63.0 °F 84% 29.83 in 10.0 mi Calm Calm - N/A   Clear